Regional Weather Roundup
Issued by NWS

Home | Current Version | Previous Version | Text Only | Print | Product List | Glossary On
Versions: 1 2 3 4 5 6 7 8 9 10 11 12 13 14 15 16 17 18 19 20 21 22 23 24 25 26 27 28 29 30 31 32 33 34 35 36 37 38 39 40 41 42 43 44 45 46 47 48 49 50
000
ASPQ40 PGUM 301414
RWRPQ
WEATHER ROUNDUP FOR THE MARIANAS AND MICRONESIA
NATIONAL WEATHER SERVICE TIYAN GU
1200 AM CHST SUN MAY 31 2015

GUZ001>004-301500-
MARIANA ISLANDS-

CITY           SKY/WX    TMP DP  RH WIND       PRES   REMARKS
GUAM AIRPORT   PTCLDY    81  75  83 E5        29.91F
ANDERSEN AFB   PTCLDY    79  75  89 E12       29.91F
ROTA AIRPORT   NOT AVBL
TINIAN AP      NOT AVBL
SAIPAN AP      PTCLDY    81  75  83 E8        29.90F

$$

PMZ161-301500-
REPUBLIC OF PALAU-

CITY           SKY/WX    TMP DP  RH WIND       PRES   REMARKS
KOROR AP       MOCLDY    79  77  94 CALM      29.91R
KOROR WSO      CLOUDY    82  77  83 CALM      29.90R HX  91

$$

PMZ171>174-301500-
FEDERATED STATES OF MICRONESIA-

CITY           SKY/WX    TMP DP  RH WIND       PRES   REMARKS
YAP AIRPORT    CLOUDY    81  75  83 VRB2      29.88R
CHUUK AP       CLOUDY    81  77  89 VRB6      29.83F
POHNPEI AP     NOT AVBL
POHNPEI WSO    CLOUDY    79  77  94 SE3       29.86F
KOSRAE AP      NOT AVBL

$$

PMZ181-301500-
REPUBLIC OF THE MARSHALL ISLANDS-

CITY           SKY/WX    TMP DP  RH WIND       PRES   REMARKS
KWAJALEIN AP   CLOUDY    79  77  94 E10       29.82F
MAJURO AP      NOT AVBL
MAJURO WSO     MOCLDY    82  77  83 E7        29.80F HX  91

$$




USA.gov is the U.S. government's official web portal to all federal, state and local government web resources and services.